KE0QIB Weather Reports


time (UTC)temp
F
wind
direction
speed
knots
gust
knots
rain 1hr
in
rain 24hr
in
rain mn
in
humidity
%
barometer
mb
20260504141156 49 278 0.9 5.2 0.00 0.08 0.00 57 994.7
20260504140656 49 0 1.7 5.2 0.00 0.08 0.00 59 994.6
20260504140156 49 103 0.9 5.2 0.00 0.08 0.00 61 994.6
20260504130656 48 218 0.0 0.0 0.00 0.08 0.00 59 993.2
20260504130156 47 218 0.0 0.0 0.00 0.08 0.00 58 993.2
20260504120156 48 229 0.0 0.9 0.00 0.08 0.00 57 991.9
20260504110656 52 282 1.7 8.7 0.00 0.08 0.00 51 989.6
20260504110156 52 313 0.9 2.6 0.00 0.08 0.00 49 989.6
20260504100156 55 217 0.0 0.9 0.00 0.08 0.00 45 988.8
20260504081656 55 225 1.7 3.5 0.00 0.08 0.00 43 987.5
20260504081156 55 225 2.6 5.2 0.00 0.08 0.00 43 987.5
20260504080656 55 213 1.7 3.5 0.00 0.08 0.00 44 987.8
20260504080156 55 213 1.7 4.3 0.00 0.08 0.00 44 987.8
20260504070157 55 229 3.5 6.1 0.00 0.08 0.08 48 988.2
20260504060157 56 223 4.3 9.6 0.00 0.08 0.08 47 987.8
20260504050657 56 215 1.7 3.5 0.00 0.08 0.08 48 988.9
20260504050157 57 214 1.7 3.5 0.00 0.08 0.08 48 988.9
20260504045657 57 215 2.6 3.5 0.00 0.08 0.08 48 988.9
20260504045157 57 215 2.6 3.5 0.00 0.08 0.08 48 988.9
20260504044657 57 215 2.6 4.3 0.00 0.08 0.08 48 988.9
20260504044157 57 216 2.6 4.3 0.00 0.08 0.08 47 988.9
20260504043657 57 217 1.7 4.3 0.00 0.08 0.08 47 988.9
20260504043157 57 229 0.9 3.5 0.00 0.08 0.08 48 988.9
20260504042657 57 225 0.0 2.6 0.00 0.08 0.08 48 988.9
20260504042157 57 219 0.0 0.9 0.00 0.08 0.08 48 989.1
20260504041657 58 219 0.9 2.6 0.00 0.08 0.08 48 989.1
20260504041157 58 219 0.9 1.7 0.00 0.08 0.08 48 989.1
20260504040657 59 219 2.6 6.1 0.00 0.08 0.08 47 989.1
20260504040157 59 219 2.6 8.7 0.00 0.08 0.08 46 989.1
20260504035657 59 223 3.5 5.2 0.00 0.08 0.08 46 989.1
20260504035157 59 213 3.5 6.1 0.00 0.08 0.08 46 989.1
20260504034657 59 224 3.5 7.8 0.00 0.08 0.08 46 989.1
20260504034157 58 219 2.6 6.1 0.00 0.08 0.08 47 989.1
20260504033657 58 232 2.6 7.0 0.00 0.08 0.08 47 989.2
20260504033157 58 218 1.7 3.5 0.00 0.08 0.08 48 989.2
20260504032657 58 219 1.7 3.5 0.00 0.08 0.08 48 989.2
20260504032157 57 221 1.7 4.3 0.00 0.08 0.08 49 989.7
20260504031657 57 220 1.7 3.5 0.00 0.08 0.08 52 989.7
20260504031157 56 221 2.6 3.5 0.00 0.08 0.08 51 989.7
20260504030657 55 221 2.6 4.3 0.00 0.08 0.08 53 990.0
20260504030157 54 221 2.6 4.3 0.00 0.08 0.08 57 990.0
20260504025657 52 223 1.7 3.5 0.00 0.08 0.08 61 990.0
20260504025157 52 223 1.7 1.7 0.00 0.08 0.08 65 989.9
20260504024657 52 223 1.7 2.6 0.00 0.08 0.08 66 989.9
20260504024157 52 223 0.9 2.6 0.00 0.08 0.08 66 989.9
20260504023657 52 223 0.0 1.7 0.00 0.08 0.08 66 989.8
20260504023157 52 223 0.0 0.0 0.00 0.08 0.08 66 989.8
20260504022657 53 223 0.9 0.0 0.00 0.08 0.08 65 989.8
20260504022157 53 223 0.9 1.7 0.00 0.08 0.08 66 990.0
20260504021657 53 223 0.9 1.7 0.00 0.08 0.08 67 990.0
20260504021157 53 223 0.9 1.7 0.00 0.08 0.08 68 990.0
20260504020657 53 223 0.9 2.6 0.00 0.08 0.08 71 990.1
20260504020157 53 223 0.9 0.9 0.00 0.08 0.08 71 990.1
20260504015657 53 223 1.7 1.7 0.00 0.08 0.08 70 990.1
20260504015157 54 223 1.7 2.6 0.00 0.08 0.08 70 990.0
20260504014657 54 223 1.7 2.6 0.00 0.08 0.08 69 990.0
20260504014157 55 223 0.9 2.6 0.00 0.08 0.08 69 990.0
20260504013657 55 223 0.0 0.0 0.00 0.08 0.08 68 989.9
20260504013157 56 223 0.0 0.0 0.00 0.08 0.08 67 989.9
20260504012657 56 223 0.0 0.0 0.00 0.08 0.08 67 989.9
20260504012157 57 223 0.0 0.0 0.00 0.08 0.08 65 990.2
20260504011657 57 223 0.0 0.0 0.00 0.08 0.08 64 990.2
20260504011157 57 223 0.0 0.0 0.00 0.08 0.08 63 990.2
20260504010657 58 223 0.0 0.0 0.00 0.08 0.08 63 990.1
20260504010157 58 223 0.0 0.0 0.00 0.08 0.08 63 990.1
20260504005657 59 223 0.0 0.0 0.00 0.08 0.08 62 990.1
20260504005157 59 223 0.0 0.0 0.00 0.08 0.08 59 989.9
20260504004657 60 223 0.0 0.0 0.00 0.08 0.08 59 989.9
20260504004157 61 223 0.0 0.0 0.00 0.08 0.08 57 989.9
20260504003657 61 223 0.0 0.0 0.00 0.08 0.08 56 990.2
20260504003157 61 223 0.9 1.7 0.00 0.08 0.08 54 990.2
20260504002657 61 223 0.9 1.7 0.00 0.08 0.08 54 990.2
20260504002157 61 223 0.9 3.5 0.00 0.08 0.08 54 990.9
20260504001657 61 222 0.9 2.6 0.00 0.08 0.08 55 990.9
20260504001157 61 222 0.9 2.6 0.00 0.08 0.08 54 990.9
20260504000657 61 222 0.9 1.7 0.00 0.08 0.08 55 991.2
20260504000157 62 222 1.7 3.5 0.00 0.08 0.08 55 991.2
20260503235657 62 225 1.7 5.2 0.00 0.08 0.08 55 991.2
20260503235157 62 219 1.7 3.5 0.00 0.08 0.08 56 991.5
20260503234657 62 175 0.9 5.2 0.00 0.08 0.08 55 991.5
20260503234157 62 173 0.9 2.6 0.00 0.08 0.08 56 991.5
20260503233657 61 174 0.9 3.5 0.00 0.08 0.08 57 991.5
20260503233157 61 175 1.7 3.5 0.00 0.08 0.08 56 991.5
20260503232657 60 167 1.7 3.5 0.00 0.08 0.08 58 991.5
20260503232157 60 217 2.6 5.2 0.00 0.08 0.08 58 992.3
20260503231657 60 213 2.6 7.8 0.00 0.08 0.08 60 992.3
20260503231157 59 206 2.6 6.1 0.00 0.08 0.08 59 992.3
20260503230657 59 216 2.6 4.3 0.00 0.08 0.08 60 992.8
20260503230157 58 229 2.6 4.3 0.00 0.08 0.08 62 992.8
20260503225657 57 223 2.6 4.3 0.00 0.08 0.08 64 992.8
20260503225157 56 233 2.6 7.8 0.00 0.08 0.08 65 993.4
20260503224657 56 210 2.6 7.8 0.00 0.08 0.08 66 993.4
20260503224158 56 232 3.5 7.8 0.00 0.08 0.08 68 993.4
20260503223657 55 238 2.6 8.7 0.00 0.08 0.08 69 994.0
20260503223157 55 204 2.6 7.8 0.00 0.08 0.08 72 994.0
20260503222657 55 215 2.6 3.5 0.00 0.08 0.08 73 994.0
20260503222157 54 206 4.3 7.8 0.00 0.08 0.08 74 994.7
20260503221657 54 202 4.3 7.8 0.00 0.08 0.08 75 994.7
20260503221158 54 205 3.5 10.4 0.00 0.08 0.08 74 994.7
20260503220657 54 213 1.7 5.2 0.00 0.08 0.08 78 994.9
20260503220158 53 201 1.7 2.6 0.00 0.08 0.08 80 994.9
20260503215658 53 201 1.7 3.5 0.00 0.08 0.08 80 994.9
20260503215158 53 196 1.7 3.5 0.00 0.08 0.08 81 995.2
20260503214658 53 195 0.9 3.5 0.00 0.08 0.08 83 995.2
20260503214158 53 192 0.9 1.7 0.00 0.08 0.08 84 995.2
20260503213658 53 192 0.9 2.6 0.01 0.08 0.08 85 995.5
20260503213158 52 192 0.0 0.9 0.03 0.08 0.08 88 995.5
20260503212658 52 192 0.9 1.7 0.05 0.08 0.08 89 995.5
20260503212158 52 192 1.7 2.6 0.07 0.08 0.08 89 995.3
20260503211658 51 192 1.7 2.6 0.07 0.08 0.08 89 995.3
20260503211158 51 192 0.9 2.6 0.07 0.08 0.08 89 995.3
20260503210658 51 192 0.0 0.0 0.07 0.08 0.08 88 996.3
20260503210158 51 192 0.0 0.0 0.07 0.08 0.08 87 996.3
20260503205658 51 192 0.0 0.0 0.07 0.08 0.08 85 996.3
20260503205158 52 192 0.0 0.0 0.07 0.08 0.08 84 995.8
20260503204658 52 192 0.0 0.0 0.07 0.08 0.08 81 995.8
20260503204158 53 192 0.0 0.9 0.07 0.08 0.08 77 995.8
20260503203658 55 192 0.0 2.6 0.06 0.07 0.07 72 995.6
20260503203158 56 192 0.9 1.7 0.04 0.05 0.05 68 995.6
20260503202658 58 86 1.7 3.5 0.04 0.05 0.05 65 995.6
20260503202158 60 80 1.7 2.6 0.00 0.01 0.01 54 994.3
20260503201658 61 80 1.7 5.2 0.00 0.01 0.01 49 994.3
20260503201158 61 78 2.6 5.2 0.00 0.01 0.01 47 994.3
20260503200658 62 77 2.6 6.1 0.00 0.01 0.01 46 994.4
20260503200158 63 55 2.6 6.1 0.00 0.01 0.01 46 994.4
20260503195658 63 107 2.6 6.1 0.00 0.01 0.01 48 994.4
20260503195158 62 146 1.7 5.2 0.00 0.01 0.01 48 994.8
20260503194658 62 175 0.9 4.3 0.00 0.01 0.01 50 994.8
20260503194158 61 178 0.9 3.5 0.00 0.01 0.01 50 994.8
20260503193658 61 63 0.0 3.5 0.00 0.01 0.01 50 994.9
20260503193158 61 63 0.0 1.7 0.00 0.01 0.01 53 994.9
20260503192658 61 63 0.0 2.6 0.00 0.01 0.01 52 994.9
20260503192158 61 61 0.0 0.0 0.01 0.01 0.01 48 995.2
20260503191658 61 61 0.9 0.0 0.01 0.01 0.01 50 995.2
20260503191158 61 61 0.9 2.6 0.01 0.01 0.01 51 995.2
20260503190658 61 61 1.7 1.7 0.01 0.01 0.01 52 995.3
20260503190158 61 74 2.6 7.8 0.01 0.01 0.01 51 995.3
20260503185658 61 74 2.6 5.2 0.01 0.01 0.01 50 995.3
20260503185158 61 96 1.7 3.5 0.01 0.01 0.01 58 995.8
20260503184658 60 153 0.9 3.5 0.01 0.01 0.01 52 995.8
20260503184158 60 207 0.0 0.0 0.01 0.01 0.01 52 995.8
20260503183658 59 207 0.0 1.7 0.01 0.01 0.01 56 996.3
20260503183158 59 207 0.0 2.6 0.01 0.01 0.01 63 996.3
20260503182658 59 211 0.0 2.6 0.01 0.01 0.01 68 996.3
20260503182158 60 211 0.9 2.6 0.00 0.00 0.00 58 995.7
20260503181658 61 211 0.9 5.2 0.00 0.00 0.00 54 995.7
20260503181158 63 278 0.9 5.2 0.00 0.00 0.00 48 995.7
20260503180658 63 319 0.9 1.7 0.00 0.00 0.00 42 995.7
20260503180158 64 318 0.9 1.7 0.00 0.00 0.00 40 995.7
20260503175658 64 317 1.7 5.2 0.00 0.00 0.00 40 995.7
20260503175158 63 355 1.7 3.5 0.00 0.00 0.00 44 995.8
20260503174658 63 355 1.7 6.1 0.00 0.00 0.00 43 995.8
20260503174158 63 35 1.7 4.3 0.00 0.00 0.00 42 995.8
20260503173658 63 45 1.7 4.3 0.00 0.00 0.00 44 996.4
20260503173158 63 66 2.6 4.3 0.00 0.00 0.00 42 996.4
20260503172658 63 40 1.7 4.3 0.00 0.00 0.00 43 996.4
20260503172158 62 26 1.7 4.3 0.00 0.00 0.00 46 996.5
20260503171658 62 103 1.7 3.5 0.00 0.00 0.00 44 996.5
20260503171158 62 109 1.7 5.2 0.00 0.00 0.00 44 996.5
20260503170658 62 24 1.7 4.3 0.00 0.00 0.00 47 996.7
20260503170158 62 49 2.6 4.3 0.00 0.00 0.00 44 996.7
20260503160158 59 69 1.7 5.2 0.00 0.00 0.00 45 997.3
20260503150658 57 70 0.9 3.5 0.00 0.00 0.00 49 997.7
20260503150158 57 69 1.7 3.5 0.00 0.00 0.00 50 997.7